Flag for Austria Weather past 2 weeks in Güssing, Burgenland, Austria

Now
77 °F

Warm.


Feels Like: 79 °F
Forecast: 58 / 78 °F
Wind: 1 mph from South

Location: Murska Sobota

Current Time: Jul 24, 2014 at 8:31:08 PM

Latest Report: Jul 24, 2014 at 7:00 PM


Visibility: N/A

Pressure: 29.83 "Hg

Humidity: 55%

Dew point: 60 °F

Location of GüssingLocation

Historic Weather in Güssing — Graph

°F

Güssing temperature yesterday

Maximum temperature yesterday: 82 °F (at 5:00 PM)
Minimum temperature yesterday: 64 °F (at 11:00 PM)
Average temperature yesterday: 71 °F

Past Weeks' High & Low Weather Summary

 TemperatureHumidityPressure
High88 °F (Jul 20, 4:00 PM)99% (Jul 11, 4:00 AM)30.10 "Hg (Jul 11, 4:00 AM)
Low56 °F (Jul 24, 6:00 AM)37% (Jul 17, 2:00 PM)29.68 "Hg (Jul 11, 3:00 PM)
Average70 °F76%29.90 "Hg
* Reported Jul 9 7:00 PM — Jul 24 7:00 PM, Güssing, Weather by CustomWeather, © 2014

Note: Actual official high and low records may vary slightly from our data, if they occured in-between our weather recording intervals... More about our weather records

Advertising

Güssing weather history for previous 24 hours

 ConditionsComfort  
Time TempWeatherWind HumidityBarometerVisibility
7:00 PM
Jul 24
77 °FWarm.1 mph55%29.83 "HgN/A
6:00 PM80 °FWarm.2 mph43%29.82 "HgN/A
5:00 PM82 °FWarm.2 mph43%29.82 "HgN/A
4:00 PM81 °FWarm.2 mph43%29.83 "HgN/A
3:00 PM81 °FPassing clouds.2 mph42%29.83 "Hg6 mi
2:00 PM79 °FPassing clouds.N/A61%29.85 "Hg6 mi
12:00 PM77 °FMild.1 mph53%29.85 "HgN/A
11:00 AM74 °FMild.2 mph55%29.86 "HgN/A
10:00 AM72 °FMild.1 mph63%29.86 "HgN/A
9:00 AM70 °FMild.2 mph70%29.87 "HgN/A
8:00 AM65 °FScattered clouds.1 mph85%29.88 "Hg6 mi
7:00 AM60 °FPassing clouds.2 mph90%29.88 "Hg6 mi
6:00 AM56 °FCool.No wind95%29.88 "HgN/A
5:00 AM56 °FCool.1 mph94%29.88 "HgN/A
4:00 AMN/APassing clouds.N/AN/AN/A1 mi
2:00 AM61 °FCool.3 mph81%29.87 "HgN/A
1:00 AM62 °FCool.3 mph78%29.88 "HgN/A
12:00 AM62 °FCool.2 mph83%29.88 "HgN/A
11:00 PM
Jul 23
64 °FMild.2 mph76%29.88 "HgN/A
10:00 PM66 °FMild.2 mph71%29.87 "HgN/A
9:00 PM67 °FMild.3 mph71%29.86 "HgN/A
8:00 PM72 °FPassing clouds.5 mph71%29.83 "Hg6 mi
Weather by CustomWeather, © 2014

See weather overviewHow to use our weather pages